FW2584 Weather Reports


Display with metric or nautical units.
time (UTC)temp
F
wind
direction
speed
MPH
gust
MPH
rain 1hr
in
rain 24hr
in
rain mn
in
humidity
%
barometer
mb
20260831004542 79 0 0.0 0.0 0.00 0.00 0.00 95 1019.7
20260831004024 79 0 0.0 0.0 0.00 0.00 0.00 95 1019.7
20260831003525 79 0 0.0 0.0 0.00 0.00 0.00 95 1019.7
20260831003044 79 0 0.0 0.0 0.00 0.00 0.00 95 1019.7
20260831002523 79 0 0.0 0.0 0.00 0.00 0.00 95 1019.6
20260831002023 79 0 0.0 0.0 0.00 0.00 0.00 95 1019.6
20260831001538 79 0 0.0 0.0 0.00 0.00 0.00 94 1019.6
20260831001028 79 0 0.0 0.0 0.00 0.00 0.00 94 1019.4
20260831000525 80 0 0.0 0.0 0.00 0.00 0.00 94 1019.5
20260831000046 80 0 0.0 0.0 0.00 0.00 0.00 94 1019.5
20260830235521 80 0 0.0 0.0 0.00 0.00 0.00 92 1019.4
20260830235021 80 0 0.0 0.0 0.00 0.00 0.00 92 1019.4
20260830234542 80 0 0.0 0.0 0.00 0.00 0.00 92 1019.4
20260830234024 80 0 0.0 0.0 0.00 0.00 0.00 92 1019.3
20260830233523 80 0 0.0 0.0 0.00 0.00 0.00 91 1019.3
20260830233045 80 0 0.0 0.0 0.00 0.00 0.00 90 1019.3
20260830232524 80 0 0.0 0.0 0.00 0.00 0.00 91 1019.3
20260830232024 80 0 0.0 0.0 0.00 0.00 0.00 90 1019.4
20260830231545 80 0 0.0 0.0 0.00 0.00 0.00 90 1019.4
20260830231026 81 0 0.0 0.0 0.00 0.00 0.00 89 1019.4
20260830230528 81 0 0.0 0.0 0.00 0.00 0.00 88 1019.5
20260830230041 81 0 0.0 0.0 0.00 0.00 0.00 89 1019.6
20260830225523 82 0 0.0 0.0 0.00 0.00 0.00 89 1019.5
20260830225023 82 0 0.0 0.0 0.00 0.00 0.00 88 1019.6
20260830224546 82 0 0.0 0.0 0.00 0.00 0.00 88 1019.5
20260830224023 82 0 0.0 0.0 0.00 0.00 0.00 88 1019.5
20260830223523 82 0 0.0 0.0 0.00 0.00 0.00 88 1019.5
20260830223044 82 0 0.0 0.0 0.00 0.00 0.00 88 1019.4
20260830222524 82 0 0.0 0.0 0.00 0.00 0.00 87 1019.4
20260830222028 82 0 0.0 0.0 0.00 0.00 0.00 87 1019.4
20260830221544 83 0 0.0 0.0 0.00 0.00 0.00 87 1019.3
20260830221023 83 0 0.0 0.0 0.00 0.00 0.00 87 1019.4
20260830220525 83 0 0.0 0.0 0.00 0.00 0.00 87 1019.6
20260830220048 83 0 0.0 0.0 0.00 0.00 0.00 86 1019.7
20260830215525 82 0 0.0 0.0 0.00 0.00 0.00 88 1019.7
20260830215025 82 0 0.0 0.0 0.00 0.00 0.00 87 1019.6
20260830214546 82 0 0.0 0.0 0.00 0.00 0.00 87 1019.6
20260830214025 82 0 0.0 0.0 0.00 0.00 0.00 87 1019.6
20260830213523 82 0 0.0 0.0 0.00 0.00 0.00 87 1019.5
20260830213042 82 0 0.0 0.0 0.00 0.00 0.00 87 1019.5
20260830212524 82 0 0.0 0.0 0.00 0.00 0.00 88 1019.6
20260830212024 81 0 0.0 0.0 0.00 0.00 0.00 91 1019.6
20260830211541 81 0 0.0 0.0 0.00 0.00 0.00 91 1019.5
20260830211029 81 0 0.0 0.0 0.00 0.00 0.00 91 1019.6
20260830210524 81 0 0.0 0.0 0.00 0.00 0.00 90 1019.5
20260830210040 82 0 0.0 0.0 0.00 0.00 0.00 89 1019.6
20260830205525 82 0 0.0 0.0 0.00 0.00 0.00 88 1019.8
20260830205024 82 0 0.0 0.0 0.00 0.00 0.00 86 1019.9
20260830204545 83 0 0.0 0.0 0.00 0.00 0.00 84 1019.9
20260830204024 83 0 0.0 0.0 0.00 0.00 0.00 84 1019.9
20260830203524 83 0 0.0 0.0 0.00 0.00 0.00 82 1019.9
20260830203042 84 0 0.0 0.0 0.00 0.00 0.00 82 1019.9
20260830202525 85 0 0.0 0.0 0.00 0.00 0.00 83 1019.9
20260830202024 85 0 0.0 0.0 0.00 0.00 0.00 82 1019.8
20260830201544 85 0 0.0 0.0 0.00 0.00 0.00 82 1019.9
20260830201024 85 0 0.0 0.0 0.00 0.00 0.00 82 1019.8
20260830200523 85 0 0.0 0.0 0.00 0.00 0.00 82 1020.0
20260830200042 85 0 0.0 0.0 0.00 0.00 0.00 81 1020.1
20260830195524 85 0 0.0 0.0 0.00 0.00 0.00 82 1020.2
20260830195023 84 0 0.0 0.0 0.00 0.00 0.00 82 1020.1
20260830194543 85 0 0.0 2.0 0.00 0.00 0.00 82 1020.1
20260830194025 85 0 0.0 3.0 0.00 0.00 0.00 80 1020.2
20260830193526 85 267 0.0 3.0 0.00 0.00 0.00 76 1020.3
20260830193044 86 0 0.0 3.0 0.00 0.00 0.00 77 1020.4
20260830192526 86 0 0.0 3.0 0.00 0.00 0.00 78 1020.5
20260830192029 86 267 0.0 3.0 0.00 0.00 0.00 76 1020.4
20260830191548 86 0 0.0 2.0 0.00 0.00 0.00 76 1020.5
20260830191025 86 0 0.0 1.0 0.00 0.00 0.00 78 1020.5
20260830190524 87 0 0.0 1.0 0.00 0.00 0.00 75 1020.6
20260830190049 87 0 0.0 1.0 0.00 0.00 0.00 74 1020.7
20260830185525 86 0 0.0 1.0 0.00 0.00 0.00 76 1020.6
20260830185025 86 0 0.0 1.0 0.00 0.00 0.00 78 1020.7
20260830184549 86 0 0.0 0.0 0.00 0.00 0.00 80 1020.8
20260830184023 86 0 0.0 0.0 0.00 0.00 0.00 80 1020.8
20260830183524 85 0 0.0 1.0 0.00 0.00 0.00 78 1020.9
20260830183044 85 0 0.0 4.0 0.00 0.00 0.00 77 1020.9
20260830182527 85 0 0.0 4.0 0.00 0.00 0.00 77 1020.9
20260830182029 86 286 0.0 4.0 0.00 0.00 0.00 76 1021.0
20260830181544 86 0 0.0 3.0 0.00 0.00 0.00 74 1021.0
20260830181030 86 0 0.0 1.0 0.00 0.00 0.00 75 1021.1
20260830180525 86 0 0.0 0.0 0.00 0.00 0.00 76 1021.2
20260830180044 85 0 0.0 0.0 0.00 0.00 0.00 77 1021.2
20260830175524 85 0 0.0 1.0 0.00 0.00 0.00 79 1021.3
20260830175026 85 0 0.0 1.0 0.00 0.00 0.00 78 1021.4
20260830174554 85 0 0.0 0.0 0.00 0.00 0.00 75 1021.4
20260830174025 85 0 0.0 4.0 0.00 0.00 0.00 76 1021.5
20260830173525 86 0 0.0 4.0 0.00 0.00 0.00 74 1021.5
20260830173046 87 285 1.0 4.0 0.00 0.00 0.00 73 1021.6
20260830172524 87 0 0.0 3.0 0.00 0.00 0.00 74 1021.6
20260830172023 86 273 0.0 3.0 0.00 0.00 0.00 77 1021.6
20260830171552 86 0 0.0 1.0 0.00 0.00 0.00 78 1021.6
20260830171026 86 0 0.0 3.0 0.00 0.00 0.00 78 1021.7
20260830170527 85 0 0.0 3.0 0.00 0.00 0.00 78 1021.8
20260830170046 85 0 0.0 3.0 0.00 0.00 0.00 78 1021.8
20260830165524 85 0 1.0 3.0 0.00 0.00 0.00 78 1022.0
20260830165024 85 0 0.0 1.0 0.00 0.00 0.00 75 1022.0
20260830164542 85 0 0.0 2.0 0.00 0.00 0.00 77 1022.0
20260830164023 85 0 0.0 2.0 0.00 0.00 0.00 79 1022.0
20260830163525 84 0 0.0 2.0 0.00 0.00 0.00 82 1022.1
20260830163045 84 0 0.0 1.0 0.00 0.00 0.00 79 1022.0
20260830162527 83 0 0.0 1.0 0.00 0.00 0.00 83 1022.1
20260830162022 83 0 0.0 1.0 0.00 0.00 0.00 85 1022.2
20260830161559 83 0 0.0 4.0 0.00 0.00 0.00 83 1022.2
20260830161024 82 0 0.0 4.0 0.00 0.00 0.00 83 1022.2
20260830160526 83 0 0.0 4.0 0.00 0.00 0.00 83 1022.2
20260830160043 83 0 0.0 3.0 0.00 0.00 0.00 83 1022.3
20260830155524 82 0 0.0 1.0 0.00 0.00 0.00 85 1022.3
20260830155026 82 0 0.0 2.0 0.00 0.00 0.00 83 1022.4
20260830154539 82 0 0.0 2.0 0.00 0.00 0.00 86 1022.5
20260830154025 81 0 0.0 1.0 0.00 0.00 0.00 86 1022.5
20260830153525 81 0 0.0 2.0 0.00 0.00 0.00 87 1022.6
20260830153044 81 0 0.0 2.0 0.00 0.00 0.00 85 1022.6
20260830152524 82 0 0.0 2.0 0.00 0.00 0.00 84 1022.7
20260830152026 82 0 0.0 1.0 0.00 0.00 0.00 87 1022.7
20260830151540 82 0 0.0 2.0 0.00 0.00 0.00 87 1022.8
20260830151025 82 0 0.0 2.0 0.00 0.00 0.00 89 1022.7
20260830150524 81 268 0.0 2.0 0.00 0.00 0.00 88 1022.7
20260830150045 80 0 0.0 2.0 0.00 0.00 0.00 89 1022.9
20260830145524 79 0 0.0 2.0 0.00 0.00 0.00 92 1022.8
20260830145022 79 0 0.0 1.0 0.00 0.00 0.00 91 1022.8
20260830144552 79 0 0.0 2.0 0.00 0.00 0.00 91 1022.9
20260830144024 79 0 0.0 2.0 0.00 0.00 0.00 92 1022.8
20260830143525 79 0 0.0 1.0 0.00 0.00 0.00 92 1022.7
20260830143045 78 0 0.0 1.0 0.00 0.00 0.00 92 1022.7
20260830142525 78 0 0.0 1.0 0.00 0.00 0.00 92 1022.7
20260830142025 78 0 0.0 1.0 0.00 0.00 0.00 93 1022.7
20260830141547 78 0 0.0 1.0 0.00 0.00 0.00 93 1022.6
20260830141023 78 0 0.0 1.0 0.00 0.00 0.00 93 1022.5
20260830140521 78 0 0.0 2.0 0.00 0.00 0.00 94 1022.4
20260830140054 77 0 0.0 2.0 0.00 0.00 0.00 94 1022.3
20260830135524 77 0 0.0 2.0 0.00 0.00 0.00 95 1022.3
20260830135024 77 0 0.0 1.0 0.00 0.00 0.00 96 1022.3
20260830134544 76 0 0.0 1.0 0.00 0.00 0.00 97 1022.4
20260830134025 76 0 0.0 3.0 0.00 0.00 0.00 96 1022.3
20260830133525 75 0 0.0 3.0 0.00 0.00 0.00 97 1022.3
20260830133041 75 0 0.0 3.0 0.00 0.00 0.00 97 1022.4
20260830132528 75 0 0.0 1.0 0.00 0.00 0.00 98 1022.4
20260830132024 75 0 0.0 1.0 0.00 0.00 0.00 98 1022.5
20260830131554 75 0 0.0 1.0 0.00 0.00 0.00 99 1022.6
20260830131025 74 0 0.0 1.0 0.00 0.00 0.00 99 1022.6
20260830130530 74 0 0.0 1.0 0.00 0.00 0.00 99 1022.6
20260830130045 74 0 0.0 0.0 0.00 0.00 0.00 100 1022.7
20260830125525 74 0 0.0 0.0 0.00 0.00 0.00 99 1022.6
20260830125027 74 0 0.0 0.0 0.00 0.00 0.00 100 1022.7
20260830124542 73 0 0.0 0.0 0.00 0.00 0.00 100 1022.7
20260830124027 73 0 0.0 0.0 0.00 0.00 0.00 100 1022.7
20260830123526 73 0 0.0 0.0 0.00 0.00 0.00 100 1022.6
20260830123042 73 0 0.0 0.0 0.00 0.00 0.00 100 1022.6
20260830122523 73 0 0.0 0.0 0.00 0.00 0.00 100 1022.6
20260830122024 73 0 0.0 0.0 0.00 0.00 0.00 100 1022.6
20260830121544 73 0 0.0 0.0 0.00 0.00 0.00 100 1022.6
20260830121024 73 0 0.0 0.0 0.00 0.00 0.00 100 1022.5
20260830120525 73 0 0.0 0.0 0.00 0.00 0.00 100 1022.5
20260830120044 73 0 0.0 0.0 0.00 0.00 0.00 100 1022.6
20260830115525 73 0 0.0 0.0 0.00 0.00 0.00 100 1022.5
20260830115025 73 0 0.0 0.0 0.00 0.00 0.00 100 1022.6
20260830114549 73 0 0.0 0.0 0.00 0.00 0.00 100 1022.4
20260830114024 72 0 0.0 0.0 0.00 0.00 0.00 100 1022.4
20260830113524 72 0 0.0 0.0 0.00 0.00 0.00 100 1022.5
20260830113039 73 0 0.0 0.0 0.00 0.00 0.00 100 1022.4
20260830112524 73 0 0.0 0.0 0.00 0.00 0.00 100 1022.5
20260830112024 73 0 0.0 0.0 0.00 0.00 0.00 100 1022.4
20260830111544 73 0 0.0 0.0 0.00 0.00 0.00 100 1022.4
20260830111024 73 0 0.0 0.0 0.00 0.00 0.00 100 1022.2
20260830110524 72 0 0.0 0.0 0.00 0.00 0.00 100 1022.2
20260830110039 72 0 0.0 0.0 0.00 0.00 0.00 100 1022.1
20260830105523 72 0 0.0 0.0 0.00 0.00 0.00 100 1022.0
20260830105024 72 0 0.0 0.0 0.00 0.00 0.00 100 1021.9
20260830104539 72 0 0.0 0.0 0.00 0.00 0.00 100 1021.8
20260830104026 72 0 0.0 0.0 0.00 0.00 0.00 100 1021.7
20260830103524 72 0 0.0 0.0 0.00 0.00 0.00 100 1021.7
20260830103045 72 0 0.0 0.0 0.00 0.00 0.00 100 1021.7
20260830102527 72 0 0.0 0.0 0.00 0.00 0.00 100 1021.8
20260830102025 72 0 0.0 0.0 0.00 0.00 0.00 100 1021.7
20260830101543 72 0 0.0 0.0 0.00 0.00 0.00 100 1021.7
20260830101025 72 0 0.0 0.0 0.00 0.00 0.00 99 1021.5
20260830100524 72 0 0.0 0.0 0.00 0.00 0.00 99 1021.5
20260830100042 72 0 0.0 0.0 0.00 0.00 0.00 99 1021.4
20260830095524 72 0 0.0 0.0 0.00 0.00 0.00 99 1021.6
20260830095024 72 0 0.0 0.0 0.00 0.00 0.00 100 1021.5
20260830094541 72 0 0.0 0.0 0.00 0.00 0.00 100 1021.5
20260830094025 72 0 0.0 0.0 0.00 0.00 0.00 100 1021.4
20260830093524 72 0 0.0 0.0 0.00 0.00 0.00 100 1021.4
20260830093044 72 0 0.0 0.0 0.00 0.00 0.00 100 1021.5
20260830092524 72 0 0.0 0.0 0.00 0.00 0.00 100 1021.4
20260830092024 72 0 0.0 0.0 0.00 0.00 0.00 100 1021.3
20260830091543 72 0 0.0 0.0 0.00 0.00 0.00 100 1021.3
20260830091024 72 0 0.0 0.0 0.00 0.00 0.00 100 1021.3
20260830090525 72 0 0.0 0.0 0.00 0.00 0.00 100 1021.3
20260830090042 72 0 0.0 0.0 0.00 0.00 0.00 100 1021.2
20260830085523 72 0 0.0 0.0 0.00 0.00 0.00 100 1021.1
20260830085024 72 0 0.0 0.0 0.00 0.00 0.00 100 1021.1
20260830084545 72 0 0.0 0.0 0.00 0.00 0.00 100 1021.0
20260830084025 72 0 0.0 0.0 0.00 0.00 0.00 100 1021.0
20260830083525 72 0 0.0 0.0 0.00 0.00 0.00 100 1021.1
20260830083043 72 0 0.0 0.0 0.00 0.00 0.00 99 1021.1
20260830082524 72 0 0.0 0.0 0.00 0.00 0.00 99 1021.1
20260830082025 72 0 0.0 0.0 0.00 0.00 0.00 99 1021.1
20260830081545 72 0 0.0 0.0 0.00 0.00 0.00 99 1021.2
20260830081025 72 0 0.0 0.0 0.00 0.00 0.00 99 1021.2
20260830080521 72 0 0.0 0.0 0.00 0.00 0.00 99 1021.2
20260830080044 72 0 0.0 0.0 0.00 0.00 0.00 99 1021.0
20260830075523 72 0 0.0 0.0 0.00 0.00 0.00 99 1021.1
20260830075027 72 0 0.0 0.0 0.00 0.00 0.00 99 1021.1
20260830074543 72 0 0.0 0.0 0.00 0.00 0.00 99 1021.3
20260830074028 72 0 0.0 0.0 0.00 0.00 0.00 99 1021.3
20260830073525 72 0 0.0 0.0 0.00 0.00 0.00 99 1021.3
20260830073047 72 0 0.0 0.0 0.00 0.00 0.00 99 1021.2
20260830072528 72 0 0.0 0.0 0.00 0.00 0.00 99 1021.2
20260830072024 72 0 0.0 0.0 0.00 0.00 0.00 99 1021.2
20260830071541 72 0 0.0 0.0 0.00 0.00 0.00 99 1021.3
20260830071029 72 0 0.0 0.0 0.00 0.00 0.00 99 1021.4
20260830070523 72 0 0.0 0.0 0.00 0.00 0.00 99 1021.4
20260830070043 72 0 0.0 0.0 0.00 0.00 0.00 99 1021.5
20260830065524 72 0 0.0 0.0 0.00 0.00 0.00 99 1021.6
20260830065024 72 0 0.0 0.0 0.00 0.00 0.00 99 1021.6
20260830064554 72 0 0.0 0.0 0.00 0.00 0.00 99 1021.5
20260830064024 72 0 0.0 0.0 0.00 0.00 0.00 99 1021.5
20260830063524 72 0 0.0 0.0 0.00 0.00 0.00 99 1021.4
20260830063043 72 0 0.0 0.0 0.00 0.00 0.00 99 1021.4
20260830062523 72 0 0.0 0.0 0.00 0.00 0.00 99 1021.5
20260830062023 72 0 0.0 0.0 0.00 0.00 0.00 99 1021.4
20260830061541 72 0 0.0 0.0 0.00 0.00 0.00 99 1021.5
20260830061023 72 0 0.0 0.0 0.00 0.00 0.00 99 1021.6
20260830060521 72 0 0.0 0.0 0.00 0.00 0.00 99 1021.6
20260830060046 72 0 0.0 0.0 0.00 0.00 0.00 99 1021.6
20260830055528 72 0 0.0 0.0 0.00 0.00 0.00 99 1021.8
20260830055024 72 0 0.0 0.0 0.00 0.00 0.00 99 1021.9
20260830054541 73 0 0.0 0.0 0.00 0.00 0.00 99 1021.9
20260830054023 72 0 0.0 0.0 0.00 0.00 0.00 99 1022.0
20260830053524 73 0 0.0 0.0 0.00 0.00 0.00 99 1022.1
20260830053039 73 0 0.0 0.0 0.00 0.00 0.00 99 1022.1
20260830052523 73 0 0.0 0.0 0.00 0.00 0.00 99 1021.9
20260830052024 73 0 0.0 0.0 0.00 0.00 0.00 99 1022.2
20260830051543 73 0 0.0 0.0 0.00 0.00 0.00 99 1022.2
20260830051024 73 0 0.0 0.0 0.00 0.00 0.00 99 1022.2
20260830050524 73 0 0.0 0.0 0.00 0.00 0.00 99 1022.2
20260830050045 73 0 0.0 0.0 0.00 0.00 0.00 99 1022.1
20260830045520 73 0 0.0 0.0 0.00 0.00 0.00 99 1022.1
20260830045023 73 0 0.0 0.0 0.00 0.00 0.00 99 1022.0
20260830044543 73 0 0.0 0.0 0.00 0.00 0.00 99 1022.1
20260830044023 73 0 0.0 0.0 0.00 0.00 0.00 99 1022.2
20260830043524 73 0 0.0 0.0 0.00 0.00 0.00 98 1022.2
20260830043042 73 0 0.0 0.0 0.00 0.00 0.00 98 1022.2
20260830042524 73 0 0.0 0.0 0.00 0.00 0.00 98 1022.1
20260830042027 73 0 0.0 0.0 0.00 0.00 0.00 98 1022.0
20260830041543 73 0 0.0 0.0 0.00 0.00 0.00 98 1022.1
20260830041022 73 0 0.0 0.0 0.00 0.00 0.00 98 1022.1
20260830040523 73 0 0.0 0.0 0.00 0.00 0.00 98 1022.2
20260830040054 73 0 0.0 0.0 0.00 0.00 0.00 98 1022.3
20260830035524 73 0 0.0 0.0 0.00 0.00 0.00 98 1022.3
20260830035021 74 0 0.0 0.0 0.00 0.00 0.00 98 1022.4
20260830034542 74 0 0.0 0.0 0.00 0.00 0.00 98 1022.4
20260830034026 74 0 0.0 0.0 0.00 0.00 0.00 98 1022.4
20260830033528 74 0 0.0 0.0 0.00 0.00 0.00 98 1022.5
20260830033046 74 0 0.0 0.0 0.00 0.00 0.00 98 1022.4
20260830032524 74 0 0.0 0.0 0.00 0.00 0.00 98 1022.4
20260830032023 74 0 0.0 0.0 0.00 0.00 0.00 98 1022.4
20260830031540 74 0 0.0 0.0 0.00 0.00 0.00 98 1022.4
20260830031027 74 0 0.0 0.0 0.00 0.00 0.00 98 1022.3
20260830030524 74 0 0.0 0.0 0.00 0.00 0.00 98 1022.2
20260830030048 74 0 0.0 0.0 0.00 0.00 0.00 98 1022.2
20260830025524 74 0 0.0 0.0 0.00 0.00 0.00 98 1022.2
20260830025023 74 0 0.0 0.0 0.00 0.00 0.00 98 1022.1
20260830024542 74 0 0.0 0.0 0.00 0.00 0.00 98 1022.1
20260830024024 74 0 0.0 0.0 0.00 0.00 0.00 97 1022.0
20260830023525 74 0 0.0 0.0 0.00 0.00 0.00 97 1022.0
20260830023044 74 0 0.0 0.0 0.00 0.00 0.00 97 1021.9
20260830022524 74 0 0.0 0.0 0.00 0.00 0.00 97 1021.9
20260830022025 74 0 0.0 0.0 0.00 0.00 0.00 97 1021.8
20260830021543 74 0 0.0 0.0 0.00 0.00 0.00 97 1021.8
20260830021025 74 0 0.0 0.0 0.00 0.00 0.00 97 1021.9
20260830020527 75 0 0.0 0.0 0.00 0.00 0.00 97 1021.8
20260830020045 75 0 0.0 0.0 0.00 0.00 0.00 97 1021.7
20260830015524 75 0 0.0 0.0 0.00 0.01 0.00 97 1021.7
20260830015023 75 0 0.0 0.0 0.00 0.01 0.00 96 1021.6
20260830014545 75 0 0.0 0.0 0.00 0.01 0.00 96 1021.5
20260830014024 75 0 0.0 0.0 0.00 0.01 0.00 96 1021.3
20260830013526 75 0 0.0 0.0 0.00 0.01 0.00 96 1021.2
20260830013042 75 0 0.0 0.0 0.00 0.01 0.00 96 1021.0
20260830012524 76 0 0.0 0.0 0.00 0.01 0.00 96 1020.8
20260830012028 76 0 0.0 0.0 0.00 0.01 0.00 96 1020.8
20260830011544 76 0 0.0 0.0 0.00 0.01 0.00 96 1020.8
20260830011024 76 0 0.0 0.0 0.00 0.01 0.00 96 1020.8
20260830010524 76 0 0.0 0.0 0.00 0.01 0.00 96 1020.9
20260830010046 76 0 0.0 0.0 0.00 0.01 0.00 96 1021.0
20260830005525 76 0 0.0 0.0 0.00 0.03 0.00 96 1020.9
20260830005024 76 0 0.0 0.0 0.00 0.03 0.00 95 1020.8